Find Starlink 4333

NORAD ID: 53088 Int'l Des: 2022-077 Owner: SPXS Country: US Constellation: starlink operational
LEOCIRCULARRETROGRADESSO

当前视图

正在加载3D地球...

关于 Starlink 4333

正在加载描述...

即将过境

Passes for default location (London). Set your location on the main map for personalized predictions.

高度历史

Loading altitude history...

两行轨道根数

1 53088U 22077AX 26150.06711470 -.00000650 00000-0 -40976-4 0 9995
2 53088 97.4283 329.7641 0001771 89.9610 270.1820 15.05652000213156
Epoch: May 30, 2026 • Age: 14 hours

当前状态

高度 578.9 km
速度 7.57 km/s
星下点 -80.19°S, 19.52°W
发射日期 Jul 11, 2022
运行时间 3.8 years
类型 internet

技术详情

分类 Payload
质量 297.00 kg
干质量 275.00 kg
总质量 297.00 kg
长度 0.20 m
直径 2.80 m
跨度 9.00 m
形状 Box + pan
制造商 SPXS
平台类型 Starlink
阶段状态 In Orbit
所有者/国家 SPXS/US

Most Searched